STARLINK-4492 (53410 NORAD) Tracking and Keplerian Element Data

This shows tracking and keplerian element data for the satellite.

Feedback or suggestion? Click here.




ElementValue
Catalog53410
NameSTARLINK-4492
Epoch Orbit1675
Epoch Day324.80271755
Epoch Year2022
RAAN123.0641
Inclination53.2163
Eccentricity0.0001878
Argument of Perigee58.3601
Mean Anonmoly301.7574
Mean Motion15.08834573
Decay Rate2.4E-07
L11 53410U 22097Y 22324.80271755 .00000024 00000+0 19603-4 0 9999
L22 53410 53.2163 123.0641 0001878 58.3601 301.7574 15.08834573 16759



Live tracking and technical data element details for STARLINK-4492 (NORAD 53410). STARLINK-4492 can be tracked NOW for your location showing map with azimuth and elevation plus other details from your city location.







IsCatalogInMostPopularTable: catalog: 53410, numindb: 6
Update: records affected: 1



GetName: 53410 STARLINK-4492

Hit Count: updated at: Thu, 08 Dec 2022 20:00:51 GMT